SCP
0 0 0 0 0 0 0 0 1 2 2 1 1 1 1 1 1 1 1 1 1 1 1 1 1 1 1 2 2 2 3 4 5 5 4 3 2 2 1 1 1 1 1 1
0 0 0 0 0 0 0 0 1 1 1 1 1 1 1 1 1 1 1 1 1 1 1 1 1 1 1 2 2 2 4 5 5 5 4 4 3 2 2 1 1 1 1 1
0 0 0 0 0 0 0 0 1 1 1 1 1 1 1 1 1 1 1 1 1 1 1 1 1 1 1 2 2 3 4 6 6 6 5 4 3 2 2 2 1 1 1 1
0 0 0 0 0 0 0 0 0 0 1 1 1 1 1 1 1 1 1 2 2 2 1 1 1 1 1 1 2 2 3 5 6 7 6 4 3 2 2 2 1 1 1 1
0 0 0 0 0 0 0 0 0 0 0 1 1 1 1 2 2 2 2 2 2 2 2 1 1 1 1 1 1 2 3 4 6 7 6 4 3 2 2 2 2 1 1 1
0 0 0 0 0 0 0 0 0 0 1 1 1 1 1 2 2 2 2 3 3 2 2 2 1 1 1 2 2 2 3 4 5 5 5 4 4 3 3 2 2 2 2 2
0 0 0 0 0 0 0 0 0 0 0 1 1 2 2 2 2 2 2 3 3 2 2 2 2 2 2 2 2 2 3 4 4 4 4 5 4 4 3 3 2 2 2 2
0 0 0 0 0 0 0 0 0 0 0 1 1 1 2 2 2 2 2 3 3 2 2 2 2 2 2 2 2 3 3 4 4 4 5 5 5 4 4 4 4 3 3 3
0 0 0 0 0 0 0 0 0 0 0 0 1 1 1 2 2 2 2 2 3 3 2 2 2 2 2 2 2 3 3 4 4 4 4 5 5 6 6 6 6 5 4 3
0 0 0 0 0 0 0 0 0 0 0 0 0 1 1 2 2 2 2 2 3 3 2 2 2 3 3 2 2 3 4 4 4 4 4 5 6 7 7 8 7 5 4 3
0 0 0 0 0 0 0 0 0 0 0 1 1 1 2 3 2 2 2 3 3 3 2 2 3 4 4 4 4 4 4 4 4 4 4 5 6 6 7 6 5 4 3 3
0 0 0 0 0 0 0 0 0 0 1 1 1 1 2 3 3 2 3 3 3 3 2 2 3 4 5 5 5 5 5 4 4 3 3 4 5 5 5 5 4 3 3 2
0 0 0 0 0 1 1 0 0 0 0 1 1 2 2 2 2 3 3 4 4 3 3 3 3 4 5 6 6 5 5 4 3 3 3 3 4 4 4 3 3 3 3 3
0 0 0 0 0 1 1 1 0 0 0 1 1 2 2 2 3 3 4 4 4 3 3 4 4 5 5 5 5 4 4 3 3 3 3 3 3 3 3 3 3 3 3 3
1 1 1 1 1 1 1 1 1 1 0 0 1 1 2 2 3 4 4 4 4 4 4 5 5 6 6 5 4 4 3 3 3 3 4 4 4 3 3 4 4 3 3 3
1 1 1 1 1 1 1 1 1 1 1 1 1 1 2 2 3 4 4 5 5 5 5 6 6 7 6 5 4 4 3 3 3 4 4 5 5 4 4 4 4 4 3 3
1 1 1 1 1 1 1 1 1 1 1 1 1 1 1 2 3 4 5 6 7 7 6 6 7 7 6 5 4 4 4 4 3 3 4 4 5 5 5 5 4 4 3 3
1 1 1 1 1 1 1 1 1 1 1 1 1 1 1 1 2 4 6 7 8 8 7 7 6 6 5 5 5 5 4 4 3 3 3 4 4 5 5 5 4 4 4 3
1 1 1 1 1 1 1 1 1 1 1 2 2 2 1 2 3 4 7 8 9 9 8 7 6 5 5 5 6 5 4 4 4 4 4 4 4 4 5 5 5 5 4 4
2 2 1 1 1 1 1 1 1 1 2 2 3 3 3 3 4 5 7 9 10 10 9 8 7 6 6 6 6 5 5 5 6 6 6 5 5 5 5 6 6 5 4 4
1 1 1 1 1 1 1 2 2 2 3 3 4 5 5 5 5 7 8 9 10 10 10 10 9 8 8 7 6 6 6 7 8 8 8 8 7 7 6 6 6 5 4 3
1 1 1 1 1 1 2 2 2 3 4 4 5 5 5 6 7 8 9 9 10 11 11 12 12 11 9 8 7 8 8 8 8 8 9 9 9 7 5 5 4 3 2 2
1 1 1 1 1 2 2 2 3 3 4 4 4 4 5 6 8 9 9 10 10 11 12 13 13 11 9 8 8 8 9 8 7 7 7 8 7 5 4 3 2 2 1 1
1 1 2 1 2 2 2 2 2 2 3 3 3 3 4 6 7 8 9 10 10 11 12 13 12 11 9 8 7 8 7 7 7 7 6 5 5 4 3 2 1 1 1 1
1 1 2 2 2 2 2 2 1 2 3 3 2 3 4 5 5 6 9 10 10 11 11 12 12 10 9 7 7 6 7 7 7 7 6 5 4 3 2 1 1 1 1 1
1 1 2 2 2 2 2 2 1 2 2 3 3 3 4 4 4 5 8 10 11 10 11 12 11 10 8 7 6 6 6 6 6 6 5 4 4 3 2 1 1 1 1 1
Wind_Speed
6 8 6 4 5 5 5 5 3 2 1 4 3 3 2 4 5 5 6 6 6 6 6 5 5 6 5 4 4 3 3 2 2 1 1 2 3 3 3 3 4 3 4 4
9 9 5 4 5 6 7 5 3 0 1 4 4 5 3 4 5 5 6 7 7 7 7 7 6 6 5 5 4 4 4 3 2 2 2 1 2 2 3 3 3 3 3 3
10 3 3 6 6 7 6 5 4 2 2 5 6 5 4 5 5 5 6 7 7 7 8 8 8 6 6 5 5 4 3 3 3 3 3 3 3 2 2 2 2 3 3 3
9 5 5 7 7 7 5 2 4 5 6 2 4 3 4 4 5 6 6 7 7 8 8 8 8 8 7 6 5 5 4 4 3 3 2 3 2 2 2 1 3 3 3 3
7 6 7 8 6 6 3 2 4 5 6 5 4 6 2 4 3 4 6 6 6 7 8 8 8 8 7 6 6 5 5 4 4 3 3 2 2 2 2 2 3 2 3 3
7 5 6 5 3 4 3 6 6 7 7 5 2 5 1 2 1 2 5 6 6 6 7 7 7 8 7 7 6 6 5 4 4 4 3 2 2 2 2 2 2 1 2 2
9 9 6 5 6 7 8 8 6 6 5 2 1 5 1 3 1 1 3 5 7 7 8 8 8 9 8 7 7 6 6 5 5 4 3 3 3 3 3 2 2 1 1 2
10 9 8 7 8 6 8 9 6 5 4 1 3 3 1 2 1 1 3 5 6 7 7 8 9 9 8 8 7 7 6 6 5 4 4 3 2 2 2 1 1 1 1 2
8 6 6 5 5 8 7 8 8 8 7 5 2 2 3 3 3 4 4 5 6 6 7 8 9 9 9 8 8 7 7 6 5 5 4 3 2 1 2 2 1 1 1 1
6 6 5 5 7 5 6 6 6 8 6 6 4 4 1 2 2 4 5 5 5 6 7 7 8 8 8 8 8 7 7 6 5 5 4 4 3 3 2 2 2 1 1 1
9 8 7 8 8 7 8 8 7 7 7 8 5 0 4 1 1 3 4 5 5 6 7 7 8 8 8 8 8 7 7 6 6 5 4 3 3 3 2 2 1 1 1 1
7 8 8 7 3 4 8 8 9 7 6 7 7 1 6 4 2 1 2 4 5 5 5 6 7 8 8 8 7 7 6 7 6 5 5 4 3 2 2 1 1 1 1 0
5 8 9 9 9 8 8 7 9 9 8 8 8 2 6 3 2 2 2 4 5 5 6 6 6 7 7 7 7 6 6 6 6 6 5 4 3 3 2 1 1 1 0 1
6 9 10 9 4 5 8 8 9 11 9 8 8 5 1 1 1 2 2 4 5 6 6 6 6 7 7 6 6 6 6 5 5 5 5 4 3 3 2 2 1 1 0 1
7 9 9 8 6 6 8 9 9 11 10 10 6 5 3 2 1 1 2 3 4 4 5 6 6 6 7 6 6 6 5 5 5 5 4 4 4 3 3 2 2 1 1 1
5 7 8 9 8 9 10 9 9 9 9 9 8 5 2 1 1 1 2 3 3 4 4 4 5 6 6 6 6 5 5 5 5 4 4 4 3 3 3 2 2 1 1 1
6 7 8 9 7 10 11 9 9 8 7 8 7 2 0 1 1 1 2 2 2 2 3 4 4 5 5 6 6 6 5 5 5 4 4 4 3 3 3 3 2 2 2 1
5 7 6 7 7 12 3 1 5 7 5 5 4 2 1 1 0 2 2 1 0 1 2 2 4 5 5 5 5 5 5 5 5 4 4 3 3 3 3 3 2 2 2 1
5 6 6 7 10 9 4 3 4 7 5 3 4 2 1 0 2 4 4 3 1 0 1 2 3 4 5 5 6 5 5 4 4 3 3 3 3 3 3 3 2 1 1 1
6 7 8 8 10 9 2 2 2 6 7 0 2 1 1 2 5 2 4 2 2 1 1 1 2 3 5 5 5 6 5 4 3 2 2 2 2 2 2 1 1 1 1 1
8 8 10 10 10 5 3 2 3 8 0 3 1 1 1 2 4 3 2 2 2 2 2 2 3 3 4 4 5 5 4 3 2 2 2 2 2 2 2 1 1 1 1 1
7 7 8 9 11 5 4 1 2 3 4 2 2 2 1 2 2 2 3 3 3 3 3 3 3 3 3 4 4 4 3 3 3 2 2 2 2 1 2 2 1 1 1 2
5 4 3 4 1 4 2 2 3 2 1 2 2 1 1 1 1 2 3 3 3 2 3 3 3 3 3 3 3 3 3 3 3 3 3 2 1 1 2 2 2 2 2 2
3 2 3 3 2 1 1 2 2 1 1 1 0 1 1 1 2 2 2 2 2 2 2 2 3 3 3 3 2 3 3 3 3 3 2 2 2 1 1 1 2 1 1 1
1 3 4 4 2 1 2 1 2 1 1 1 1 2 1 2 2 2 2 2 2 2 2 2 2 3 3 3 2 2 3 3 3 2 2 2 2 2 1 1 0 0 1 1
3 4 5 3 0 2 0 1 1 1 1 1 1 2 2 2 2 1 1 1 1 2 1 2 2 3 3 2 2 2 2 2 3 2 2 2 1 1 1 1 2 2 1 2
Wind_Direction
208 232 236 253 278 296 287 287 302 345 263 265 274 271 222 200 205 194 190 185 181 176 163 160 164 161 154 147 142 141 133 120 126 117 116 109 99 95 90 80 72 74 70 70
216 230 247 254 249 256 260 266 271 145 220 268 278 269 235 211 211 207 200 194 191 180 170 169 171 167 168 160 156 156 153 145 149 123 121 110 95 99 91 78 79 77 76 74
235 237 230 240 240 242 253 276 295 296 250 228 260 234 190 187 198 202 206 200 194 191 182 175 173 172 173 167 164 153 146 146 143 141 147 135 136 138 114 101 93 73 68 68
235 224 222 237 242 255 252 276 266 259 255 239 262 283 159 183 189 194 200 196 191 190 187 177 170 172 174 169 161 155 153 147 144 151 136 139 129 109 95 98 85 81 73 67
219 224 231 239 246 255 284 273 251 251 260 271 242 276 116 169 193 190 194 192 192 186 181 178 174 169 170 165 160 153 151 147 146 149 141 155 136 121 115 104 97 89 85 77
242 227 244 250 237 234 215 211 213 230 247 255 271 275 304 117 192 183 183 181 184 179 174 173 167 162 165 162 161 155 153 150 153 157 148 150 131 120 115 114 110 120 100 91
219 212 206 224 213 190 223 242 233 225 225 240 124 263 352 43 47 184 174 174 176 172 169 166 164 164 165 163 161 156 153 156 157 157 155 155 150 149 140 141 119 115 104 93
220 206 195 209 234 230 225 251 263 278 281 245 184 259 84 102 95 154 161 160 162 167 166 166 166 166 166 164 162 161 161 161 158 156 149 145 156 161 127 108 92 103 73 68
229 212 170 203 234 249 226 239 271 275 271 271 233 215 182 157 156 153 152 152 156 162 164 168 167 167 166 164 163 163 162 162 162 154 146 144 146 117 108 130 150 115 105 108
242 236 190 183 203 211 265 253 245 258 273 270 249 240 184 159 159 162 162 160 155 158 164 168 166 165 162 162 159 161 160 159 155 151 156 143 141 141 137 132 98 79 80 62
241 239 201 198 219 213 203 220 242 257 268 276 275 330 64 70 146 175 167 162 158 158 159 161 162 159 158 160 157 158 156 154 154 151 149 145 145 138 138 136 126 108 65 31
227 246 238 218 188 277 243 234 233 246 248 258 278 318 81 69 74 125 146 143 148 147 148 153 155 156 158 159 158 157 157 156 155 153 155 155 149 151 162 145 122 118 105 322
206 239 230 212 195 198 225 230 241 254 254 252 261 225 104 86 63 83 113 132 142 144 144 145 148 151 153 153 155 155 156 156 154 154 156 156 161 162 167 143 126 137 151 295
246 242 246 252 251 208 216 222 237 250 253 256 258 270 134 37 50 71 103 135 147 148 148 147 148 152 149 150 154 157 159 158 156 157 159 162 167 171 167 161 168 179 217 261
243 243 241 254 263 260 248 239 232 247 264 272 277 275 293 352 10 79 122 137 143 146 153 154 155 151 154 154 157 161 161 161 160 162 162 160 164 167 175 181 189 193 223 243
243 250 241 241 236 243 248 245 239 242 252 256 262 268 13 352 30 111 119 138 148 152 161 162 158 154 160 161 163 163 166 164 164 169 167 162 169 177 186 190 192 200 223 266
224 234 244 245 231 238 235 234 235 234 242 255 258 279 331 300 13 113 134 149 162 167 173 175 173 169 165 163 164 169 169 169 171 174 175 172 177 181 190 200 190 203 225 249
233 234 241 246 229 239 225 213 240 242 242 258 268 293 289 306 290 120 93 95 146 151 166 174 184 175 167 162 166 168 168 172 174 177 180 176 186 187 192 204 208 214 222 220
227 231 243 242 239 235 199 208 239 241 235 265 262 274 336 329 211 132 67 38 25 131 161 177 186 173 159 161 158 157 160 161 168 175 178 184 195 195 200 206 207 208 221 222
197 222 242 239 252 253 202 115 269 252 228 136 280 267 257 244 244 93 48 27 25 42 96 137 156 154 147 155 153 156 155 158 166 172 175 176 184 193 198 197 213 203 214 207
200 211 232 240 248 248 68 58 225 236 247 52 5 324 289 303 339 25 45 52 46 55 76 106 132 137 136 144 150 156 153 156 149 142 150 170 163 166 165 166 174 188 205 180
229 224 224 237 245 228 75 192 268 19 33 30 25 24 24 27 36 54 69 71 68 65 77 92 106 111 124 142 155 157 151 142 138 139 133 132 150 170 139 147 158 181 202 196
247 289 277 268 301 69 66 38 41 18 358 13 23 51 105 120 93 78 77 78 80 80 87 94 105 112 122 139 154 153 139 139 144 142 138 141 139 150 157 172 171 185 210 242
179 254 248 231 187 110 59 59 42 23 12 14 58 128 148 136 115 102 83 80 82 82 93 106 118 120 111 114 128 140 143 151 151 150 159 162 157 149 140 201 197 201 221 247
264 225 230 226 225 210 152 45 35 62 58 82 100 119 134 132 131 111 94 87 82 90 101 119 120 114 107 109 123 135 147 159 162 169 189 189 173 142 150 136 17 208 76 6
231 247 259 262 268 274 101 96 110 125 112 114 133 130 126 124 125 124 104 93 92 101 122 123 116 110 110 117 123 127 156 176 188 194 206 206 188 165 178 151 114 73 110 119